{"data":{"norad_id":50805,"epoch":"2026-09-19T18:43:46.729344Z","epoch_age_seconds":107535,"freshness":"FRESH","line1":"1 50805U 22001C   26262.78040196  .00019756  00000+0  83120-3 0  9990","line2":"2 50805  53.1399   2.3598 0002799 315.1812  44.8959 15.23404268259915","mean_motion":15.23404268,"eccentricity":0.0002799,"inclination_deg":53.1399,"raan_deg":2.3598,"arg_perigee_deg":315.1812,"mean_anomaly_deg":44.8959,"bstar":0.0008312,"rev_number":25991,"period_min":94.525138877975,"perigee_km":493.65733837855,"apogee_km":497.50524587848,"semimajor_km":6873.7182921285,"source":"CELESTRAK","updated_at":"2026-09-20T09:00:39.575142Z"}}